Regional Weather Roundup
Issued by NWS Cleveland, OH

Home | Current Version | Previous Version | Text Only | Print | Product List | Glossary Off
Versions: 1 2 3 4 5 6 7 8 9 10 11 12 13 14 15 16 17 18 19 20 21 22 23 24 25 26 27 28 29 30 31 32 33 34 35 36 37 38 39 40 41 42 43 44 45 46 47 48 49 50

000
ASUS41 KCLE 200010
RWRCLE
OHIO REGIONAL WEATHER ROUNDUP
NATIONAL WEATHER SERVICE CLEVELAND, OH
800 PM EDT SAT APR 19 2014

NOTE: "FAIR" INDICATES FEW OR NO CLOUDS BELOW 12,000 FEET WITH NO
SIGNIFICANT WEATHER AND/OR OBSTRUCTIONS TO VISIBILITY.

OHZ001>008-015>018-024>027-034-035-043-044-200100-
   NORTHWEST OHIO

CITY           SKY/WX    TMP DP  RH WIND       PRES   REMARKS
DEFIANCE       CLEAR     52  25  35 E9        30.33S
FINDLAY        CLEAR     50  22  33 NE13      30.31F
TOLEDO EXPRESS CLEAR     48  28  46 E9        30.35R
TOLEDO EXEC    CLEAR     47  28  47 E8        30.36S
LIMA           CLEAR     51  24  34 E9        30.30S
$$

OHZ009>014-019>023-028>033-038-089-200100-
   NORTHEAST OHIO

CITY           SKY/WX    TMP DP  RH WIND       PRES   REMARKS
CLE-HOPKINS    CLEAR     46  28  49 NE15      30.35F
CLE-LAKEFRONT  CLEAR     43  36  76 NE13      30.33F
CUY CO. ARPT   PTCLDY    46  28  49 NE14      30.34S
LORAIN-ELYRIA  CLEAR     48  30  49 NE13      30.33F
ASHTABULA      CLEAR     45  26  47 N8        30.35S
AKRON-CANTON   PTCLDY    56  21  25 NE12      30.30S
WOOSTER        CLEAR     49  34  56 N8        30.31S
MANSFIELD      CLEAR     49  26  41 NE7       30.30F
YOUNGSTOWN     MOCLDY    52  28  39 N10       30.31R
$$

OHZ042-051>053-060>062-070>072-077>081-200100-
  SOUTHWEST OHIO

CITY           SKY/WX    TMP DP  RH WIND       PRES   REMARKS
CINC-COVINGTON PTCLDY    65  33  30 NE10      30.23S
CINC-LUNKEN    CLEAR     62  35  36 NE9       30.23F
HAMILTON       CLEAR     63  36  36 NE8       30.25F
DAYTON         PTCLDY    57  34  41 NE8       30.27F
WRIGHT-PAT AFB CLEAR     59  34  39 NE10      30.26S
DAYTON GENERAL CLEAR     60  33  36 NE10      30.24F
WILMINGTON     CLEAR     58  34  40 NE10      30.24F
$$

OHZ036-037-039>041-045>050-054>059-063>069-073>076-082>088-200100-
  CENTRAL AND SOUTHEAST OHIO

CITY           SKY/WX    TMP DP  RH WIND       PRES   REMARKS
COLUMBUS       PTCLDY    62  27  26 NE6       30.26S
OSU AIRPORT    CLEAR     57  29  34 NE7       30.26F
BOLTON FIELD   PTCLDY    59  32  36 NE7       30.26S
RICKENBACK AFB PTCLDY    62  20  20 NE8       30.25S
NEWARK         MOCLDY    61  20  20 NE6       30.25F
MARION         CLEAR     50  31  48 NE12      30.30S
LANCASTER      PTCLDY    60  32  34 NE8       30.25F
ZANESVILLE     MOCLDY    61  22  22 N7        30.26F
NEW PHILLY     MOCLDY    59  24  26 NE6       30.29S
$$



USA.gov is the U.S. government's official web portal to all federal, state and local government web resources and services.